Wind_Speed
25 25 26 26 27 27 28 28 29 29 28 28 28 27 28 29 30 30 31 31 32 33 35 37 38 39 41 41 42 42 43 43 43 44 44 45 45 46 47 47 48 49 50 50 51 52 53 53 54 54 55 55 55 56 57 57 57 57 57 58 56 55 55 56 55 55 54 54 53 53 54 54 55 55 55 55 55 54 51 48 46 46 47 46 45 44 42 41
26 26 26 27 27 28 28 29 29 28 27 27 26 26 28 29 30 30 31 32 33 35 37 38 40 41 42 42 43 43 43 44 44 45 47 47 48 48 49 49 50 51 52 53 53 54 55 55 55 56 56 56 57 57 58 58 59 59 59 59 57 57 59 58 57 57 56 56 55 55 56 55 55 56 56 56 55 55 52 49 45 44 46 46 46 45 43 43
26 26 26 27 28 28 28 28 27 26 26 26 26 27 28 29 30 31 32 33 35 37 38 39 41 41 42 43 43 43 44 45 47 48 49 50 51 52 52 52 53 54 54 54 55 55 56 56 56 56 56 57 57 58 58 59 59 60 60 60 58 60 61 60 58 59 58 58 57 57 59 58 57 58 58 56 56 56 54 50 47 44 45 46 46 46 44 44
25 26 26 27 28 28 27 27 26 26 26 26 27 27 28 29 31 32 34 35 37 38 39 40 41 42 42 43 44 45 46 48 50 51 52 53 54 55 55 55 55 54 54 54 54 54 54 55 55 55 55 56 56 57 58 58 59 59 60 59 59 61 61 60 60 61 60 60 59 59 61 61 60 60 59 57 57 56 55 53 50 47 46 45 45 46 45 46
25 26 27 27 27 27 26 26 25 26 26 27 27 28 29 30 32 34 36 37 38 39 40 41 42 42 43 44 46 48 50 52 53 54 55 56 56 56 56 54 53 52 51 51 51 51 50 51 51 51 52 53 54 54 55 56 57 57 58 58 59 61 60 59 61 62 61 62 61 61 63 62 62 62 60 60 58 56 55 56 54 50 48 46 46 46 47 48
26 26 26 26 26 26 25 25 25 26 27 28 29 30 31 32 34 36 37 38 39 40 40 41 42 44 45 46 49 50 52 55 56 57 57 58 57 55 54 52 50 48 47 46 45 44 44 44 44 45 45 46 47 48 49 50 52 52 53 54 56 58 57 57 60 61 61 62 61 62 64 64 63 62 62 62 60 57 57 57 57 54 51 49 48 47 48 49
26 26 26 26 25 25 25 25 26 27 28 29 30 31 32 34 36 37 38 39 39 40 41 42 43 45 47 49 51 53 55 57 58 59 59 57 54 52 49 47 45 43 42 41 40 39 39 38 38 37 37 38 38 39 41 43 44 45 46 48 50 53 53 54 57 58 58 60 61 62 64 64 64 63 63 63 61 59 59 58 58 56 54 52 50 49 49 50
26 26 25 25 25 25 25 26 27 29 30 30 31 32 34 35 37 38 39 39 40 41 42 43 45 47 49 51 54 56 57 59 59 59 57 53 50 47 44 42 40 39 38 37 36 35 34 33 32 31 30 31 32 32 34 35 36 38 40 42 44 47 48 51 54 54 55 57 58 61 62 63 64 64 64 63 61 60 61 60 59 59 57 54 53 51 50 51
25 25 25 25 25 26 27 28 29 30 31 32 32 34 35 37 38 39 39 40 40 41 43 45 47 49 51 53 56 58 59 59 58 55 51 47 44 41 39 38 37 36 35 34 33 32 30 29 26 25 24 24 25 26 27 28 29 30 32 34 36 38 40 45 49 50 52 54 55 58 60 61 63 65 64 61 61 62 63 62 61 60 59 57 54 54 53 52
25 25 25 26 26 27 28 29 30 32 32 33 34 35 36 38 39 39 39 40 41 42 44 46 49 51 53 56 58 58 57 56 53 50 46 42 40 38 36 35 34 32 30 28 26 25 23 22 20 20 20 21 22 23 24 26 27 28 30 30 31 32 33 37 41 44 48 50 52 55 58 59 61 64 63 60 61 63 64 63 62 62 61 59 56 55 55 54
25 26 26 27 27 28 29 31 32 33 33 34 35 36 37 38 39 39 39 40 42 44 46 48 50 53 56 57 57 56 55 52 49 45 42 39 37 35 33 30 28 26 23 20 18 17 17 17 18 20 21 22 23 25 27 28 29 30 31 31 32 32 32 33 35 38 42 45 47 51 55 57 60 62 61 60 61 62 64 65 64 63 62 61 59 58 58 57
26 27 27 28 28 29 30 32 33 33 34 35 36 37 38 38 39 39 40 41 43 45 47 50 53 55 56 57 55 53 51 48 44 42 39 36 33 29 25 22 20 18 16 15 15 16 17 18 20 22 24 25 26 28 28 29 29 30 32 32 32 33 32 33 35 36 39 40 43 49 54 56 58 58 58 59 60 61 63 65 66 64 63 63 62 61 60 60
27 28 28 29 29 30 31 32 33 34 35 35 36 37 38 38 39 39 41 43 44 47 49 52 55 56 56 54 53 50 46 43 41 38 35 31 27 21 17 15 14 14 14 15 16 18 20 22 24 26 27 28 29 29 28 29 28 28 29 29 29 30 30 31 34 37 38 39 42 47 51 53 55 56 56 58 59 61 63 65 66 65 64 63 63 63 63 62
29 29 29 30 30 31 32 33 34 34 35 36 37 38 38 39 39 40 42 44 46 49 51 54 55 55 54 51 49 46 42 39 36 32 29 25 21 16 13 13 14 15 16 18 19 21 23 25 27 28 29 29 29 29 29 29 28 28 27 27 28 28 28 31 34 35 37 40 44 47 49 49 50 53 55 57 58 60 62 64 65 65 64 63 63 64 65 65
30 30 30 30 31 31 32 33 34 34 35 36 37 38 38 39 40 42 43 46 48 51 53 54 54 53 50 47 44 42 39 35 30 25 22 19 15 13 13 14 17 19 21 22 23 24 26 28 29 29 28 28 29 29 28 29 29 29 28 28 29 28 29 31 33 35 37 40 44 47 49 47 47 50 53 57 59 60 62 63 65 66 64 63 63 65 67 67
31 31 31 31 31 31 32 33 34 35 35 36 37 38 38 39 41 43 45 47 50 52 54 54 52 49 47 43 40 39 35 31 25 19 15 14 13 15 17 19 21 23 25 26 26 27 28 28 28 28 27 27 28 28 28 29 30 30 30 29 29 29 30 31 32 33 36 38 41 45 48 46 45 47 51 55 59 60 61 61 63 65 65 64 64 65 67 69
31 31 31 30 30 31 32 33 33 34 35 36 37 38 38 40 42 44 46 49 51 53 53 52 49 46 43 40 37 35 30 23 19 15 14 15 17 20 22 23 24 25 26 27 28 29 29 29 28 27 26 25 27 28 28 29 30 31 31 31 30 30 30 31 30 30 32 36 38 41 43 43 43 45 49 53 57 60 61 60 60 62 64 64 64 65 67 69
31 31 31 30 30 31 32 33 33 34 35 36 37 38 39 40 43 45 48 50 52 53 52 50 46 42 40 37 34 31 24 17 15 16 18 20 22 24 25 25 25 26 27 28 28 29 29 29 29 27 25 25 27 29 29 29 31 32 32 32 31 31 31 30 29 28 30 33 35 37 38 38 41 45 48 51 55 58 60 61 59 59 60 62 63 65 67 69
31 31 31 31 30 31 32 32 33 34 36 37 37 38 39 41 44 46 49 51 52 52 50 46 42 40 37 33 31 28 21 16 17 19 21 23 23 23 23 23 24 25 25 26 26 27 28 29 28 26 25 27 29 30 31 31 31 32 32 32 32 32 32 30 28 28 30 32 33 34 34 35 39 43 45 48 52 56 58 60 59 57 57 58 61 64 67 69
31 31 31 31 30 30 31 32 33 35 36 37 37 38 40 42 45 47 50 51 51 51 48 43 40 37 34 30 27 23 19 18 20 21 23 23 23 23 23 24 24 25 25 25 26 27 28 28 26 24 24 26 30 32 33 34 34 32 32 32 32 32 32 29 27 28 30 33 33 33 35 35 37 39 41 44 49 54 56 58 58 56 56 56 59 62 65 68
31 31 31 30 30 30 31 33 34 35 36 37 37 39 40 43 45 48 51 51 51 49 45 41 38 34 32 29 22 17 18 20 22 23 24 24 24 25 26 27 28 28 27 27 26 26 26 26 25 26 26 25 28 30 31 31 31 32 31 31 31 31 31 28 27 28 30 34 32 32 36 37 36 36 37 41 46 50 53 55 56 55 55 56 57 60 63 66
31 31 31 30 29 30 32 34 35 36 36 37 38 39 41 43 46 49 51 51 50 46 42 39 36 32 32 27 18 15 18 20 22 23 24 25 26 27 28 29 29 28 27 27 25 23 22 22 24 25 25 24 25 27 27 26 25 28 30 31 30 29 29 29 28 29 31 33 32 32 37 36 34 35 35 36 40 45 49 51 53 54 55 56 56 57 60 63
31 31 30 29 30 31 33 34 36 36 36 37 38 39 42 44 47 50 51 51 48 43 40 37 34 32 29 22 17 17 20 22 24 25 26 28 28 27 27 26 25 24 24 23 21 19 17 16 17 19 19 19 19 21 22 22 23 26 29 30 29 27 28 29 29 30 31 33 32 33 35 33 31 33 32 31 33 39 45 48 51 52 53 55 55 55 57 61
31 30 29 29 30 31 33 35 36 37 37 38 38 40 43 45 48 50 51 50 44 40 38 36 34 31 25 19 18 19 22 25 27 28 28 28 27 25 22 21 21 21 20 19 18 16 15 15 15 15 17 18 18 19 21 21 21 23 26 28 29 29 31 31 30 31 31 31 31 33 33 29 27 30 29 27 28 33 41 46 48 50 51 52 53 53 55 59
30 29 29 30 31 32 34 36 37 37 38 38 39 41 43 46 49 50 51 48 42 39 38 35 33 28 21 19 19 22 25 27 29 29 28 25 23 20 18 18 18 18 18 18 17 17 16 16 15 15 16 17 18 18 19 20 20 20 24 27 29 30 32 33 32 32 30 29 30 32 33 28 25 28 27 25 27 30 36 43 46 47 48 49 51 51 52 56
29 29 30 31 32 33 35 36 37 37 38 39 40 41 44 47 49 49 49 46 42 40 37 34 30 24 20 17 18 24 27 28 29 27 22 20 19 18 18 18 17 16 17 17 16 16 16 16 16 16 17 18 18 18 18 19 21 20 21 25 27 27 29 30 30 31 30 28 28 31 34 31 23 22 23 24 27 29 33 39 43 45 46 47 49 49 50 53
29 30 31 32 33 34 35 35 36 37 38 39 40 42 44 47 48 49 48 45 42 39 35 32 26 21 20 18 20 27 28 28 28 20 16 17 18 17 18 19 18 17 18 17 17 17 16 16 17 16 16 18 19 20 20 19 20 21 21 23 24 23 25 27 27 29 30 28 28 29 33 35 24 17 21 25 27 29 32 36 40 43 44 46 47 48 49 51
29 30 32 33 34 34 34 35 37 38 38 39 40 42 45 47 48 48 47 44 41 38 33 29 24 21 22 23 27 31 30 28 23 13 12 16 18 18 20 21 20 21 21 18 17 18 18 16 16 15 15 17 18 19 21 20 20 21 21 21 21 21 23 26 27 28 29 30 29 26 30 35 28 16 19 24 28 31 32 33 37 40 42 44 46 47 48 50
30 31 32 33 34 34 34 35 37 38 39 40 41 42 45 46 47 48 46 42 39 36 31 26 23 23 25 29 32 33 29 25 17 11 13 16 19 19 20 22 23 24 25 21 17 17 18 16 14 13 15 17 19 19 19 19 19 18 20 20 19 21 22 24 27 28 30 33 28 23 25 32 32 21 18 22 27 30 31 32 35 38 40 42 44 45 46 48
30 32 33 34 35 35 35 36 37 38 39 40 41 43 45 46 48 47 44 40 37 35 30 24 23 26 28 31 32 30 25 18 13 14 16 17 18 19 21 25 27 28 28 25 21 19 18 17 15 14 16 19 20 19 18 17 17 16 17 18 17 19 19 22 26 25 32 36 29 24 24 29 34 23 15 19 22 25 28 31 35 39 40 40 40 42 44 45
31 32 33 35 35 35 36 36 37 38 39 39 41 43 44 46 48 45 41 39 37 33 28 24 26 29 30 29 27 25 20 14 14 17 18 18 18 21 23 26 29 30 30 26 23 24 23 19 17 17 18 19 19 18 17 16 16 16 16 17 17 17 17 19 22 24 31 34 28 26 26 32 32 16 9 16 20 23 27 29 35 40 42 42 41 42 43 43
31 32 33 35 36 36 37 36 36 38 39 40 40 41 44 46 45 42 40 40 36 30 26 26 28 30 29 28 25 22 17 15 17 17 18 17 18 20 23 26 29 30 31 26 21 23 25 21 19 20 20 20 19 18 17 16 16 17 16 17 17 18 18 16 16 19 23 25 25 26 28 33 34 20 13 17 20 24 28 28 34 39 42 45 45 44 44 44
31 32 33 35 36 37 37 36 36 38 39 40 40 41 44 44 42 41 41 39 34 28 26 29 31 30 29 27 23 19 17 17 18 18 18 17 17 20 24 27 30 32 32 28 24 23 22 21 21 23 23 25 25 22 20 19 18 18 18 18 18 19 20 16 14 16 16 16 19 25 26 27 27 21 18 18 20 25 28 28 32 37 40 43 44 44 44 44
32 33 34 34 36 37 37 37 37 38 39 39 40 42 43 42 42 43 41 37 32 27 26 31 33 31 30 25 17 15 16 19 20 20 20 20 21 23 26 28 31 32 31 29 27 25 22 23 24 27 28 27 28 26 23 21 20 19 20 20 18 19 21 18 16 17 16 14 14 19 21 19 19 17 18 22 23 26 30 30 32 36 39 40 42 43 42 42
32 33 34 34 35 37 37 37 37 37 38 39 39 41 41 42 44 42 38 35 30 25 26 31 33 33 30 22 13 14 17 19 21 22 22 23 24 25 26 29 31 32 32 29 27 25 23 24 25 28 30 27 25 23 20 20 21 21 20 20 18 20 22 21 20 19 20 18 13 14 17 16 17 13 12 24 27 27 30 33 33 34 37 41 42 43 42 41
32 33 34 34 35 36 38 38 37 37 38 38 38 40 41 43 43 40 37 34 28 25 26 30 31 29 24 16 10 14 17 19 21 23 23 23 26 27 28 30 33 33 32 30 29 27 26 25 23 24 27 24 20 19 18 19 20 20 19 19 18 20 23 25 25 23 23 24 16 13 16 16 13 7 4 18 27 29 30 33 35 34 36 41 43 43 42 42
31 33 34 34 35 36 37 37 36 36 37 38 39 40 41 42 42 39 37 34 28 25 25 28 30 24 17 10 9 15 18 19 20 21 23 23 25 28 29 32 34 33 32 31 31 31 30 27 22 20 20 20 19 20 21 20 20 20 20 20 19 20 23 25 28 26 24 26 20 15 15 15 11 5 3 10 19 28 33 34 37 38 39 40 42 43 44 44
31 33 34 35 35 35 36 37 36 36 37 38 39 39 40 41 40 38 37 34 29 25 23 27 30 23 14 8 10 17 17 18 19 19 22 24 25 28 30 32 33 32 32 32 32 32 32 29 24 18 17 16 16 22 25 20 18 18 19 21 22 23 24 25 28 27 26 27 22 15 12 11 11 11 13 15 18 26 35 39 40 40 41 42 42 44 45 47
30 32 34 35 35 35 35 36 36 36 37 38 38 38 40 40 40 38 37 35 30 25 23 26 29 22 13 8 11 17 16 16 17 18 21 24 25 28 30 31 32 32 32 32 31 30 32 31 25 18 16 12 12 18 22 18 14 16 17 18 19 22 23 23 25 25 26 27 23 18 12 5 11 17 19 21 22 24 32 41 45 45 44 43 44 46 47 48
31 32 33 34 35 34 34 35 36 36 36 37 37 38 39 40 40 38 37 35 31 26 23 26 29 23 15 11 10 14 15 14 15 19 22 24 25 27 29 30 31 31 31 31 30 30 32 31 25 19 15 12 10 14 18 17 15 15 15 15 16 18 19 21 22 22 24 24 22 21 17 8 11 18 17 18 20 21 23 29 37 44 48 48 46 47 49 50
31 31 32 33 34 34 34 34 35 35 35 37 37 37 38 39 40 39 37 35 32 28 25 26 29 25 18 15 9 12 14 14 16 21 22 23 24 26 29 31 32 31 30 29 28 30 34 32 24 18 16 13 11 11 14 16 16 15 15 16 16 17 18 20 20 18 19 19 19 22 21 13 8 10 10 12 15 17 19 20 23 31 40 48 51 50 50 52
31 30 31 32 33 33 33 33 35 35 35 35 36 36 37 39 39 39 38 35 33 30 27 25 28 27 21 17 10 9 13 13 16 20 20 21 23 26 29 32 33 33 32 29 27 30 34 33 25 19 16 13 12 13 15 16 16 15 16 17 16 16 15 16 18 20 19 18 18 22 20 12 5 6 7 8 11 16 21 22 22 23 28 37 48 55 55 53
30 30 30 31 32 32 32 33 34 35 34 34 35 35 37 38 38 39 37 35 33 31 28 26 27 28 24 19 13 7 10 12 14 17 18 20 23 25 28 31 31 33 33 29 27 29 32 34 31 22 16 12 11 12 14 15 15 15 16 17 15 14 14 16 21 24 22 19 19 21 20 12 8 9 10 11 13 18 23 27 27 27 27 29 37 50 59 58
31 30 29 29 31 31 31 31 33 33 33 34 35 35 35 36 37 38 37 35 34 32 30 26 26 28 27 22 16 7 6 10 12 14 17 19 21 23 27 29 31 33 33 29 28 29 31 34 36 31 22 16 13 13 14 14 14 15 16 16 15 14 16 20 23 23 21 19 18 21 19 14 16 15 10 13 15 16 22 27 30 31 32 31 31 41 55 62
32 32 30 29 29 30 30 30 31 32 33 34 34 34 34 35 36 37 37 36 34 32 31 28 25 27 29 26 20 10 4 8 11 13 16 17 19 22 25 28 30 32 31 29 28 29 30 31 36 38 31 23 20 19 18 16 15 15 16 15 14 14 16 20 22 22 21 19 17 19 19 15 17 19 11 8 11 12 15 22 28 32 34 34 33 36 46 59
32 33 31 29 29 29 29 30 30 31 32 33 33 33 33 34 36 37 36 36 35 33 31 29 25 24 27 29 25 15 7 5 10 12 14 15 16 19 22 26 29 29 29 29 28 28 29 29 33 38 34 25 20 19 17 17 17 17 17 16 13 11 14 19 20 21 21 21 18 19 20 18 16 18 14 10 12 13 14 16 22 29 34 35 35 37 42 52
31 32 31 30 30 30 29 29 29 29 30 31 32 32 33 34 35 35 35 34 34 33 31 30 26 22 23 27 27 19 10 5 7 11 12 12 13 16 20 24 27 27 27 29 29 27 28 28 30 35 36 28 20 17 17 17 19 21 22 21 16 11 14 17 18 19 20 23 21 18 19 20 17 16 14 13 16 15 11 12 15 20 30 36 36 37 41 50
32 32 31 30 30 31 29 28 27 28 29 30 31 32 32 33 33 34 34 33 32 32 31 30 28 24 21 23 26 21 12 7 5 7 10 11 12 14 18 21 23 24 25 28 28 27 28 29 29 32 35 32 23 18 19 20 22 26 27 28 25 18 15 14 16 18 19 23 24 20 17 17 17 17 15 15 18 16 9 10 13 15 23 32 37 37 39 48
32 33 32 31 30 30 29 27 26 27 28 29 30 31 32 32 31 32 33 33 32 32 31 30 28 25 20 20 24 23 16 9 7 5 7 9 10 12 14 17 20 22 25 26 28 29 29 30 30 28 31 33 26 19 19 22 24 28 29 31 33 29 23 18 16 18 19 24 27 25 20 17 18 20 19 17 19 17 14 14 13 12 18 27 34 36 36 42
32 34 34 33 32 31 28 26 26 26 27 28 29 30 31 30 30 30 31 32 31 31 31 29 28 26 21 20 23 25 21 13 10 8 4 6 7 8 10 12 16 21 24 25 27 30 31 30 30 27 27 31 29 22 20 21 24 27 29 30 34 35 31 26 24 25 25 25 24 22 20 18 18 21 21 18 18 18 19 20 17 12 14 23 31 34 34 36
32 34 35 34 32 30 28 26 25 24 25 26 28 29 30 29 29 29 30 31 30 30 29 28 27 25 23 21 23 25 23 17 11 9 6 4 5 5 6 9 12 17 20 23 26 29 31 30 28 27 25 28 30 27 23 22 23 26 30 32 35 37 34 30 29 30 30 28 25 23 23 22 21 21 20 19 19 19 21 23 21 18 13 18 28 32 32 32
33 34 34 34 32 30 27 26 25 24 23 24 27 29 29 28 28 29 29 30 30 30 29 27 26 25 23 20 20 22 23 18 12 9 8 5 3 3 4 7 11 14 18 23 26 30 33 31 28 27 26 25 28 30 28 24 25 30 33 34 35 36 35 33 31 30 30 31 30 29 28 26 24 24 22 19 19 20 22 23 22 22 17 12 25 30 30 28
Wind_Direction
312 312 312 311 311 310 309 307 306 304 302 300 298 298 299 300 301 301 301 301 301 301 301 301 300 300 299 298 298 297 296 295 294 293 292 291 290 288 287 285 283 281 279 277 275 273 271 270 269 268 266 265 264 263 262 261 261 260 259 259 259 259 257 255 254 253 252 251 250 248 247 245 244 245 245 245 246 245 244 243 241 238 237 236 233 231 227 226
313 313 313 312 312 310 309 308 307 305 304 302 302 302 303 304 304 304 304 304 304 304 304 303 302 302 301 300 300 299 298 297 297 296 296 295 294 292 289 286 284 282 280 278 275 273 272 270 269 267 266 264 263 262 261 260 259 259 258 258 258 257 256 254 254 253 252 251 249 248 247 245 243 243 243 243 244 244 243 242 241 239 237 235 233 231 226 226
314 314 314 313 312 311 311 310 309 308 306 306 305 306 307 307 307 307 307 308 307 307 305 304 304 303 303 303 302 301 301 300 300 299 298 297 296 294 291 288 285 283 280 278 276 273 271 270 268 267 265 264 262 261 260 259 258 257 257 257 256 255 254 254 254 253 251 249 248 247 247 245 243 243 241 241 242 242 241 241 240 238 237 234 232 230 226 225
315 315 315 314 314 313 313 312 312 311 309 309 309 310 310 310 310 311 310 310 309 307 306 306 306 306 306 305 304 304 304 303 302 301 300 299 297 294 291 289 287 284 282 279 277 274 272 270 268 266 264 263 261 260 259 258 257 256 255 255 254 253 252 252 252 251 250 249 247 246 246 245 244 243 241 240 239 240 240 240 239 236 235 233 230 229 225 224
317 317 317 316 316 315 315 314 313 312 312 311 312 313 313 313 313 313 312 311 310 309 309 309 309 308 308 307 306 306 305 304 303 303 302 300 298 295 293 291 288 286 284 281 278 276 273 270 268 266 264 262 261 260 259 258 257 256 255 254 253 252 251 250 250 249 248 248 247 245 245 244 244 243 242 240 238 237 238 239 238 235 234 233 230 227 223 222
319 319 319 318 318 317 317 316 315 314 314 314 315 315 315 315 315 314 313 312 311 311 311 311 310 310 309 308 308 308 307 306 305 304 303 301 298 296 294 292 290 287 284 281 278 276 273 271 269 267 265 263 262 260 259 259 258 257 256 255 254 253 251 249 249 248 247 247 246 245 244 243 243 242 242 241 238 236 236 237 237 235 233 231 229 226 222 220
322 322 322 321 321 320 319 317 316 316 316 317 317 317 316 316 316 315 314 314 314 314 313 312 311 311 311 311 310 309 309 308 307 305 303 301 299 297 295 292 290 287 284 281 278 275 273 271 270 269 266 264 262 260 259 258 258 257 256 255 255 254 252 250 249 248 248 246 245 244 243 242 241 241 240 240 239 236 235 235 236 235 232 230 228 226 222 219
325 326 325 325 324 322 321 319 318 318 318 318 318 317 317 317 317 316 316 316 315 315 314 313 313 313 313 313 312 311 310 308 306 304 303 301 299 297 295 292 289 286 284 280 277 274 273 271 270 268 265 263 261 259 258 257 257 256 255 255 255 255 253 251 250 249 248 247 245 244 244 242 241 239 238 238 239 237 235 234 234 234 233 230 227 226 223 219
329 329 328 327 325 323 321 320 319 319 319 319 319 319 318 318 318 318 318 317 316 315 315 316 316 315 315 314 313 311 309 308 306 305 304 303 301 298 295 291 288 286 283 279 276 274 272 270 268 265 262 261 260 259 258 258 259 259 257 257 257 257 256 254 253 251 249 248 246 245 244 243 242 240 237 236 237 237 236 234 233 233 232 230 227 225 223 220
331 330 329 327 325 323 321 320 320 320 320 320 320 319 319 320 320 320 318 317 317 317 318 318 317 317 316 315 313 311 309 309 308 307 306 304 301 297 294 291 288 285 282 279 276 274 272 269 265 261 259 259 261 262 262 262 263 263 262 260 259 259 258 258 257 254 252 250 248 246 244 243 242 240 236 234 235 235 235 233 232 231 232 230 227 225 224 221
331 330 328 327 325 323 322 321 320 321 321 321 321 320 320 321 321 320 318 319 319 320 320 319 319 318 316 314 313 313 312 311 310 309 307 305 301 297 293 290 287 284 280 276 272 271 269 266 264 263 262 263 264 265 266 266 266 266 264 263 262 260 259 260 259 258 255 252 250 248 245 243 242 240 235 233 234 234 234 233 231 230 230 229 227 225 224 222
331 330 328 326 324 322 321 321 321 322 322 322 321 320 321 322 321 320 320 321 321 321 321 321 320 318 317 316 317 316 315 314 313 311 308 305 301 296 294 291 289 285 280 276 273 272 270 270 270 270 270 270 269 269 269 269 269 268 267 265 264 263 263 263 262 260 258 255 252 250 246 243 242 240 235 234 234 234 234 232 230 229 228 228 227 225 223 223
332 330 328 325 323 321 321 321 321 322 322 321 321 322 322 322 321 321 322 323 323 322 322 322 320 319 320 320 319 318 317 316 314 312 310 306 300 296 295 293 291 288 284 280 277 276 276 276 277 276 275 274 272 271 271 270 269 268 267 266 264 263 264 265 264 262 261 258 254 253 248 243 242 240 235 234 234 233 233 232 231 229 227 227 226 225 223 222
333 331 329 326 323 321 321 321 322 322 322 322 322 323 323 322 322 323 324 324 324 324 324 323 322 323 323 322 320 319 318 317 316 313 308 303 298 295 294 294 293 291 288 285 282 281 280 280 279 278 277 275 274 273 271 269 267 265 263 264 264 265 266 266 267 266 264 260 256 255 252 245 242 240 236 234 233 233 231 231 231 229 227 226 225 225 223 223
334 332 330 327 325 323 322 322 322 322 323 324 324 324 323 323 324 325 326 325 325 326 325 325 326 326 325 323 322 321 320 319 318 312 306 302 299 299 298 298 298 296 294 290 288 286 283 282 280 279 278 277 275 273 270 266 264 261 261 263 266 270 270 268 269 270 268 265 259 257 254 248 243 241 237 234 233 232 231 230 230 229 227 225 224 224 223 223
334 332 331 329 327 324 323 323 323 324 325 325 325 324 324 325 326 327 326 326 327 328 328 328 329 328 326 325 324 322 322 322 320 314 308 306 304 306 305 303 302 300 296 293 290 287 284 281 279 279 281 280 278 273 268 264 261 260 261 264 267 271 272 271 272 272 272 268 262 259 256 250 246 242 238 235 233 231 230 230 230 229 227 225 223 222 223 223
335 333 333 332 329 326 325 325 326 326 327 326 326 326 327 328 328 328 328 329 330 330 330 331 331 330 328 327 325 325 326 327 324 318 316 316 314 313 310 307 304 300 297 294 292 290 288 285 282 281 280 278 274 270 265 263 263 263 263 265 266 269 271 272 273 272 271 269 265 262 259 252 248 244 238 234 232 231 230 229 229 229 227 226 224 222 222 223
335 334 334 333 331 329 328 328 328 328 328 327 327 328 329 329 329 329 331 332 332 332 333 334 333 331 330 329 327 327 330 332 329 323 320 319 316 313 309 306 302 298 296 295 292 290 288 286 284 284 283 275 269 266 266 266 268 267 265 264 265 267 270 271 271 270 267 267 267 266 263 256 251 247 240 233 231 230 229 228 229 229 228 226 224 223 222 222
334 334 334 334 333 332 331 331 331 330 329 329 329 329 330 330 331 332 333 333 334 335 336 335 334 333 331 330 328 328 333 335 331 326 320 315 311 307 302 299 295 293 293 292 289 287 286 285 284 284 281 274 271 270 271 272 273 272 269 266 266 267 269 271 270 268 263 261 263 266 265 258 253 250 243 235 230 228 228 227 227 228 228 226 224 222 221 221
334 335 334 335 336 335 333 333 332 332 331 330 331 331 332 332 333 335 334 335 336 338 338 337 336 334 332 332 329 328 331 331 325 322 318 313 308 303 299 296 295 295 293 289 285 283 282 282 281 280 276 272 274 277 281 279 272 270 269 267 266 266 268 271 270 267 261 259 259 262 262 258 254 251 246 240 232 227 226 226 225 226 227 226 224 222 221 220
335 335 336 337 338 337 335 335 334 334 332 332 332 333 333 335 336 336 336 337 339 340 339 337 337 336 333 331 328 323 324 324 320 319 318 314 308 305 304 303 303 302 299 295 290 285 283 280 278 278 279 280 280 283 290 288 274 268 267 264 264 266 268 269 266 264 260 259 259 257 259 259 256 252 247 243 236 230 226 225 224 224 226 225 224 222 220 220
335 337 338 339 340 339 338 336 336 335 334 334 334 334 335 337 337 337 337 340 342 342 340 338 339 337 332 331 328 322 323 323 324 325 323 318 315 313 312 310 310 309 307 305 303 299 293 288 285 285 289 291 289 288 292 292 282 272 267 262 260 263 267 267 264 262 259 258 260 257 258 261 258 252 246 243 240 233 226 224 224 223 225 225 224 223 220 219
336 338 340 341 341 340 339 337 336 335 335 335 335 336 337 338 338 338 339 342 344 343 340 340 340 336 333 331 327 325 327 327 329 331 327 324 323 321 321 322 322 322 320 319 320 317 313 308 305 303 303 301 298 295 292 293 289 277 267 261 260 264 269 267 262 259 258 258 261 260 261 264 260 254 247 241 240 234 225 223 224 223 224 223 223 223 221 220
338 340 341 342 341 340 339 337 335 336 337 337 337 338 339 339 339 340 341 343 345 344 342 342 341 337 333 331 327 328 332 332 332 333 332 331 332 333 337 341 340 341 341 340 342 341 338 336 331 322 315 310 306 301 295 294 290 277 267 262 262 267 269 267 261 257 257 260 263 262 264 266 260 254 247 237 235 231 225 224 225 224 224 223 222 221 221 221
339 341 342 342 341 340 338 336 336 338 339 339 339 340 340 340 341 341 342 345 347 346 344 343 341 338 335 333 331 333 336 336 336 338 339 343 350 356 2 3 360 0 360 356 356 356 351 347 343 337 329 324 319 310 305 305 298 279 266 263 264 265 266 267 265 261 258 259 263 263 265 266 258 252 245 234 230 226 222 223 226 227 225 224 222 220 220 221
341 343 344 342 341 339 337 337 338 340 340 340 341 341 341 341 342 342 343 347 349 348 345 343 342 340 339 336 334 337 340 341 341 344 353 4 14 19 19 17 15 14 10 2 1 360 353 347 346 343 337 333 328 322 319 320 318 303 282 273 271 268 265 263 262 262 261 260 261 262 264 266 258 249 242 229 224 221 218 219 223 226 227 225 223 220 218 219
344 346 345 342 340 339 338 339 341 341 342 342 342 342 342 343 343 344 346 350 351 347 344 344 345 345 345 342 338 341 345 344 345 354 11 18 22 23 23 22 21 19 12 2 358 356 348 342 339 337 335 330 325 319 314 311 313 314 301 285 281 277 270 264 259 260 264 265 263 259 261 266 263 243 235 229 220 216 214 215 218 222 225 225 224 221 217 217
346 347 345 342 340 339 340 342 343 343 343 343 343 343 344 344 343 346 350 352 350 346 345 348 352 353 351 349 345 345 348 348 351 8 23 18 21 26 28 26 19 13 8 2 356 351 345 341 336 334 332 326 321 316 312 306 301 308 309 298 291 283 273 268 265 264 267 267 264 258 257 265 268 248 231 231 224 217 210 211 216 219 221 222 223 222 218 216
347 347 345 342 341 341 341 343 344 345 345 344 344 344 345 344 345 349 353 351 349 348 350 355 1 359 354 352 348 348 352 352 0 27 27 22 27 32 31 24 14 7 4 2 1 356 348 344 338 329 325 324 322 317 314 312 304 303 311 310 300 288 278 270 267 268 270 268 264 263 259 263 270 262 237 233 229 221 211 208 214 219 222 222 221 222 219 217
347 347 345 343 343 342 342 344 344 345 346 345 345 346 345 345 349 353 353 351 351 351 355 3 7 3 357 353 349 351 357 2 20 34 30 31 35 33 26 18 13 9 5 1 360 1 355 344 335 323 319 320 321 322 321 321 316 306 308 314 309 299 288 276 270 268 268 267 266 271 267 263 269 266 239 234 232 226 217 210 213 218 223 225 223 223 222 220
345 346 345 344 345 345 344 344 344 346 346 345 347 346 345 348 353 354 352 353 355 355 359 7 9 4 358 356 355 359 10 27 39 32 29 35 37 30 21 15 12 8 4 0 354 353 353 347 339 331 326 322 321 324 324 326 326 320 312 311 313 311 303 291 281 271 268 270 270 272 269 263 264 261 222 227 226 226 223 212 212 216 221 226 225 223 223 222
344 346 345 346 346 346 346 345 345 346 346 347 347 344 347 352 353 352 354 357 358 360 3 6 9 6 359 359 5 15 33 49 44 34 33 36 32 24 16 10 9 4 3 5 359 352 350 348 345 342 342 340 335 330 327 327 326 325 321 314 316 316 315 315 304 288 283 283 275 268 267 264 261 258 244 230 216 221 226 217 212 213 218 224 224 222 221 220
343 345 346 346 347 348 348 346 346 347 347 348 345 345 351 354 352 354 357 359 360 4 5 4 7 7 3 6 16 30 49 55 46 41 39 34 25 16 9 4 4 4 6 9 12 10 359 353 355 353 352 351 347 340 333 327 319 319 320 315 319 315 314 326 323 312 312 302 280 268 267 271 270 265 256 241 221 220 224 219 214 211 214 220 222 222 222 220
342 344 346 346 347 348 348 348 347 347 348 347 345 350 354 352 353 357 359 360 2 7 9 4 4 6 6 14 32 49 57 55 47 41 35 29 21 11 5 3 2 4 8 9 15 22 14 5 6 5 2 359 356 348 336 327 319 316 313 312 320 313 309 322 323 319 322 315 297 280 277 293 302 289 263 247 234 224 222 221 217 210 210 215 217 219 220 221
341 343 345 346 347 348 349 350 347 346 348 346 347 353 353 351 356 360 359 2 5 9 12 7 4 5 6 13 45 65 60 54 45 37 31 24 18 11 4 4 3 3 6 8 15 23 24 16 11 10 10 7 2 350 334 327 324 322 320 317 318 307 302 315 320 317 316 315 318 302 295 312 321 312 258 239 235 226 222 222 221 215 210 213 216 217 217 217
340 342 344 345 346 348 350 349 347 347 347 345 348 353 351 352 358 0 1 4 7 11 13 8 5 6 5 8 47 67 58 49 41 33 27 19 15 12 8 7 6 3 3 7 13 19 25 24 12 9 13 12 6 354 341 337 337 339 337 326 318 310 309 317 322 321 315 312 318 311 305 312 318 335 214 227 230 227 224 221 221 220 215 214 215 216 216 215
340 341 342 344 345 348 349 348 347 348 347 347 350 351 351 355 359 1 3 5 9 12 12 8 5 8 11 16 60 69 57 46 37 28 22 19 17 14 11 9 7 3 3 8 13 14 18 21 12 5 12 16 17 13 10 8 3 1 355 343 331 324 326 325 323 326 323 317 318 313 305 302 292 292 250 236 227 222 223 222 220 220 220 217 214 215 217 214
339 338 340 343 345 346 347 347 348 348 348 350 351 349 351 356 360 2 5 6 9 12 11 8 6 11 19 33 70 70 57 43 32 23 21 21 20 16 13 11 7 4 6 10 15 13 10 13 13 5 5 16 27 22 20 22 16 10 9 2 347 335 336 328 319 322 324 320 323 324 314 296 268 253 247 242 231 222 220 221 220 218 221 221 215 214 216 215
337 337 339 342 343 344 345 346 348 348 350 351 349 348 351 356 360 4 6 7 9 10 9 9 11 15 20 32 72 71 55 40 27 23 26 23 19 18 15 12 8 7 10 12 14 13 8 8 13 12 6 17 36 25 19 20 13 8 13 11 355 342 338 329 322 323 320 319 325 331 338 315 251 247 241 234 232 229 223 221 220 218 219 222 220 217 216 215
338 337 337 339 340 342 343 346 348 349 350 350 348 348 351 355 360 3 7 8 8 8 8 10 15 20 17 16 59 72 53 39 30 29 30 23 19 18 16 13 12 12 15 16 15 13 11 11 14 15 13 22 36 26 19 19 14 9 10 5 355 347 336 328 333 330 318 320 328 332 346 342 263 257 255 246 238 234 230 226 224 223 221 221 222 222 220 217
339 336 334 335 337 340 343 346 348 348 349 349 348 348 351 355 359 2 7 9 8 7 8 10 16 21 18 8 33 73 59 45 41 35 29 23 20 19 16 14 15 18 20 21 19 16 16 17 18 16 18 27 32 24 23 26 22 17 11 0 352 349 337 330 341 341 326 330 334 335 347 350 296 269 261 258 248 236 231 227 227 227 225 223 221 222 223 221
338 334 331 333 335 339 342 345 347 347 348 348 348 349 351 355 358 1 6 9 8 8 7 10 14 19 21 12 15 71 71 55 49 40 27 21 20 19 18 17 16 19 22 23 22 20 19 21 24 22 18 21 23 19 24 28 25 19 11 359 347 341 333 331 345 351 346 343 337 339 353 1 319 272 242 234 231 226 222 221 224 228 229 228 224 221 223 222
338 335 332 332 334 337 341 345 347 346 345 347 348 350 352 354 357 1 5 8 8 8 8 9 12 16 21 16 8 51 81 66 54 43 28 22 21 19 20 20 17 19 22 21 20 20 20 19 23 27 25 23 22 18 19 21 22 21 11 356 344 337 337 340 345 348 349 348 345 348 359 358 328 304 277 260 245 230 221 217 219 223 227 231 228 223 221 221
340 338 334 333 334 336 340 344 346 344 344 347 349 351 352 354 357 1 4 6 7 9 10 9 10 13 17 16 8 16 83 76 60 49 36 25 21 22 22 20 19 21 21 19 18 20 20 17 16 20 22 25 26 21 19 17 17 20 12 356 344 336 335 337 341 346 354 358 350 351 3 1 341 337 310 278 272 253 234 224 218 218 219 221 224 224 221 219
339 339 337 335 334 335 338 341 343 344 345 347 349 350 351 353 358 0 2 4 6 9 11 10 9 11 13 13 9 3 42 76 66 55 45 32 24 24 23 21 22 23 21 19 19 21 21 17 15 17 19 23 29 28 23 16 13 17 15 3 350 340 334 332 336 342 353 2 349 342 0 9 348 343 336 299 298 289 263 244 231 226 222 217 216 219 220 218
339 339 338 337 337 336 336 338 341 345 345 346 348 349 350 353 357 360 0 2 5 9 12 10 8 10 10 9 8 1 352 52 70 62 50 41 33 27 24 23 24 24 22 21 21 23 23 18 16 19 20 23 33 35 26 19 19 22 22 15 4 345 328 324 328 334 342 350 344 332 344 359 352 342 337 329 324 314 294 272 249 234 228 224 218 215 215 215
338 337 337 339 339 337 336 336 339 344 345 345 347 349 351 354 356 358 0 2 5 8 11 10 6 7 9 7 6 4 346 355 62 68 55 44 37 31 27 26 24 22 23 24 21 22 24 20 16 19 21 22 28 31 28 26 27 28 27 23 16 350 325 323 330 337 333 329 328 329 338 348 352 346 337 329 327 320 305 296 278 246 231 229 226 220 213 210
337 337 338 340 339 337 335 334 336 341 344 345 347 349 352 355 355 357 359 2 5 8 10 9 5 3 6 6 6 8 358 337 9 60 60 43 33 30 29 29 25 21 23 26 23 22 25 22 17 17 20 23 27 32 37 40 37 34 31 26 22 8 346 334 330 333 334 333 338 349 351 347 348 349 345 341 341 341 342 335 313 270 240 231 229 227 220 210
336 336 336 338 338 336 335 333 334 339 344 345 347 350 352 354 355 356 359 1 4 7 9 8 5 0 360 3 5 10 9 346 331 8 54 50 39 33 30 29 25 21 23 26 24 24 26 23 18 14 16 22 28 37 45 46 42 38 33 25 22 19 13 4 351 350 1 4 2 2 357 349 346 346 344 345 349 349 344 344 335 293 252 234 227 228 227 217
335 335 335 336 338 336 335 334 333 337 343 345 347 350 352 352 353 355 359 2 3 6 8 8 5 0 357 360 5 9 10 358 334 330 4 51 53 43 35 32 26 22 23 25 24 25 27 25 19 13 11 18 27 39 46 43 41 40 35 28 24 24 26 25 21 20 21 18 12 7 1 357 351 349 348 346 348 348 338 335 339 325 269 236 224 221 224 223
334 334 334 336 338 337 335 334 332 334 341 345 347 350 350 350 351 354 359 2 3 5 7 8 7 2 359 359 2 6 6 360 342 323 323 13 54 57 48 41 33 26 24 24 25 27 29 27 20 13 9 11 20 34 41 39 39 39 35 32 28 26 30 33 30 25 20 14 9 7 6 2 354 352 354 349 345 346 341 334 333 336 309 240 220 214 216 221
333 334 335 336 337 336 334 333 329 331 337 343 346 348 348 349 350 352 357 0 2 3 6 8 8 6 3 359 358 1 2 356 343 327 315 321 7 52 53 45 38 31 26 24 24 26 27 26 20 16 13 7 11 24 32 33 34 33 30 28 28 26 28 35 37 31 22 14 9 6 4 3 360 356 355 353 350 346 342 337 331 333 328 251 214 207 207 212
Height
5804 5802 5801 5799 5797 5795 5794 5792 5790 5789 5787 5786 5784 5783 5782 5780 5779 5777 5776 5774 5772 5770 5768 5766 5764 5762 5759 5757 5755 5752 5750 5748 5746 5745 5743 5741 5739 5738 5736 5734 5733 5731 5730 5729 5728 5727 5726 5726 5725 5725 5725 5725 5724 5724 5724 5724 5724 5725 5726 5727 5731 5736 5735 5735 5736 5738 5741 5743 5746 5748 5748 5750 5750 5751 5752 5755 5756 5760 5766 5771 5774 5776 5778 5782 5786 5790 5792 5794
5802 5801 5799 5797 5795 5793 5792 5790 5788 5787 5785 5784 5782 5781 5780 5778 5776 5774 5773 5771 5769 5767 5764 5762 5759 5757 5754 5752 5750 5747 5745 5743 5741 5739 5737 5735 5733 5731 5729 5727 5725 5724 5723 5721 5720 5719 5718 5718 5718 5718 5717 5717 5716 5716 5715 5716 5717 5717 5719 5721 5726 5728 5725 5726 5730 5732 5734 5736 5739 5740 5739 5742 5744 5744 5746 5749 5751 5756 5761 5765 5769 5771 5773 5777 5781 5785 5788 5790
5800 5799 5797 5795 5793 5791 5790 5788 5786 5785 5783 5782 5780 5779 5777 5775 5773 5771 5769 5767 5765 5763 5760 5757 5755 5752 5750 5747 5745 5742 5740 5738 5735 5733 5731 5729 5726 5724 5721 5719 5717 5715 5714 5713 5712 5711 5710 5709 5710 5709 5709 5708 5708 5708 5707 5708 5709 5710 5711 5714 5719 5717 5716 5720 5723 5724 5726 5728 5731 5733 5731 5734 5737 5737 5739 5744 5746 5751 5756 5760 5763 5766 5767 5771 5775 5780 5784 5786
5799 5797 5795 5794 5792 5790 5788 5786 5784 5783 5781 5780 5778 5777 5775 5773 5770 5768 5766 5764 5761 5758 5755 5753 5750 5748 5745 5743 5740 5737 5735 5732 5729 5727 5724 5722 5719 5716 5713 5711 5709 5707 5705 5704 5703 5703 5702 5701 5701 5701 5701 5700 5700 5700 5699 5699 5700 5701 5704 5707 5709 5706 5709 5714 5715 5715 5717 5719 5723 5725 5724 5726 5729 5729 5734 5738 5741 5746 5751 5753 5756 5759 5761 5765 5770 5774 5779 5781
5797 5795 5793 5792 5790 5788 5786 5784 5783 5781 5779 5778 5776 5774 5772 5770 5767 5765 5762 5760 5757 5754 5751 5748 5746 5743 5740 5738 5734 5732 5729 5725 5723 5720 5717 5714 5711 5708 5705 5703 5701 5699 5697 5695 5694 5694 5693 5693 5693 5693 5693 5692 5692 5692 5691 5692 5693 5694 5697 5699 5698 5697 5702 5707 5705 5706 5709 5711 5715 5717 5716 5719 5722 5723 5728 5731 5735 5742 5745 5746 5748 5753 5757 5760 5764 5768 5773 5776
5795 5794 5792 5790 5788 5786 5784 5782 5780 5779 5777 5775 5774 5771 5769 5767 5764 5761 5759 5756 5753 5750 5747 5744 5741 5738 5735 5732 5729 5726 5723 5719 5716 5713 5710 5706 5703 5699 5697 5695 5693 5691 5689 5688 5686 5686 5685 5685 5685 5685 5686 5685 5685 5686 5685 5685 5686 5689 5690 5690 5690 5690 5696 5700 5697 5698 5702 5704 5708 5709 5708 5711 5714 5718 5722 5723 5729 5736 5738 5740 5742 5747 5751 5754 5758 5762 5766 5770
5794 5792 5790 5788 5786 5784 5782 5780 5779 5777 5775 5773 5771 5768 5766 5763 5761 5758 5755 5752 5749 5746 5743 5740 5737 5734 5730 5727 5723 5720 5717 5712 5709 5706 5703 5699 5695 5692 5690 5688 5686 5684 5683 5682 5680 5679 5679 5679 5679 5680 5680 5679 5679 5680 5679 5680 5680 5682 5683 5683 5684 5684 5689 5691 5688 5691 5694 5696 5699 5700 5700 5703 5707 5711 5713 5716 5724 5730 5732 5735 5736 5740 5745 5749 5753 5756 5760 5764
5792 5790 5788 5787 5785 5783 5780 5778 5777 5775 5773 5770 5768 5765 5763 5760 5757 5754 5751 5748 5745 5742 5739 5736 5732 5729 5725 5722 5717 5714 5710 5706 5703 5699 5696 5692 5689 5686 5683 5681 5680 5678 5677 5676 5675 5674 5674 5674 5675 5675 5675 5674 5674 5674 5674 5675 5675 5677 5677 5678 5678 5679 5682 5683 5681 5685 5687 5688 5691 5691 5692 5696 5699 5701 5705 5711 5719 5723 5725 5728 5730 5734 5738 5742 5747 5750 5753 5757
5791 5789 5787 5785 5783 5781 5779 5776 5774 5772 5770 5768 5765 5762 5760 5757 5754 5751 5748 5744 5741 5738 5735 5731 5727 5724 5720 5716 5712 5707 5704 5700 5696 5693 5689 5686 5683 5680 5678 5676 5674 5673 5672 5671 5670 5670 5670 5670 5671 5671 5671 5670 5671 5671 5671 5672 5672 5673 5673 5674 5675 5675 5677 5676 5676 5679 5679 5680 5682 5683 5685 5688 5689 5690 5697 5708 5712 5714 5716 5720 5725 5728 5732 5736 5740 5744 5748 5751
5789 5787 5785 5783 5781 5779 5777 5774 5772 5770 5767 5765 5762 5759 5756 5753 5750 5747 5744 5741 5738 5734 5731 5727 5723 5719 5714 5711 5706 5701 5698 5694 5690 5686 5683 5680 5678 5675 5673 5671 5670 5669 5668 5668 5667 5667 5667 5667 5668 5668 5668 5668 5668 5668 5668 5669 5669 5669 5669 5670 5671 5671 5673 5672 5672 5673 5672 5673 5676 5676 5677 5678 5679 5681 5692 5703 5704 5704 5707 5712 5718 5722 5725 5730 5735 5738 5742 5745
5788 5786 5784 5782 5779 5777 5774 5772 5770 5767 5765 5762 5759 5756 5753 5750 5747 5744 5741 5737 5734 5730 5727 5722 5718 5714 5709 5705 5700 5695 5691 5687 5683 5681 5678 5675 5673 5671 5669 5667 5666 5666 5665 5665 5664 5664 5665 5665 5665 5665 5665 5665 5665 5665 5665 5665 5665 5665 5665 5666 5667 5667 5669 5668 5667 5668 5666 5668 5669 5668 5668 5669 5670 5675 5688 5696 5695 5696 5699 5704 5710 5714 5718 5723 5727 5732 5736 5740
5786 5784 5782 5780 5777 5775 5772 5769 5767 5765 5762 5759 5756 5753 5750 5747 5744 5740 5737 5734 5730 5726 5722 5718 5713 5709 5704 5699 5694 5689 5685 5681 5678 5676 5673 5671 5669 5667 5666 5665 5664 5663 5663 5663 5662 5663 5663 5663 5663 5663 5663 5663 5662 5662 5662 5661 5662 5661 5661 5662 5663 5663 5665 5664 5662 5662 5661 5663 5663 5659 5659 5662 5664 5672 5682 5685 5686 5689 5691 5696 5701 5707 5712 5715 5720 5725 5729 5733
5784 5782 5780 5778 5775 5772 5770 5767 5764 5762 5759 5756 5753 5750 5747 5744 5741 5737 5734 5730 5726 5722 5718 5713 5708 5703 5698 5693 5688 5684 5681 5677 5674 5671 5669 5667 5666 5664 5663 5663 5663 5662 5662 5662 5662 5661 5661 5661 5661 5660 5660 5659 5659 5658 5658 5658 5658 5658 5657 5658 5659 5659 5660 5659 5657 5656 5657 5658 5656 5651 5651 5658 5661 5666 5674 5675 5677 5680 5683 5689 5693 5699 5705 5708 5713 5718 5723 5727
5783 5780 5778 5775 5773 5770 5767 5764 5762 5759 5756 5753 5750 5747 5744 5741 5738 5734 5730 5726 5722 5718 5714 5709 5703 5698 5693 5688 5684 5680 5677 5674 5671 5668 5666 5665 5664 5663 5662 5662 5662 5661 5661 5660 5660 5660 5659 5659 5658 5657 5656 5656 5655 5655 5655 5654 5653 5653 5653 5654 5654 5655 5656 5654 5651 5651 5652 5651 5649 5646 5647 5655 5658 5661 5666 5668 5669 5672 5676 5681 5685 5691 5697 5701 5706 5711 5716 5720
5781 5778 5776 5773 5770 5768 5765 5762 5759 5757 5754 5750 5747 5744 5741 5738 5734 5731 5727 5723 5719 5714 5709 5704 5699 5693 5689 5685 5680 5677 5674 5671 5669 5667 5665 5664 5663 5662 5661 5661 5661 5660 5659 5658 5658 5657 5656 5655 5654 5653 5652 5652 5651 5651 5650 5650 5649 5649 5649 5650 5650 5651 5651 5649 5647 5646 5646 5646 5644 5642 5644 5651 5654 5657 5660 5661 5662 5665 5669 5674 5678 5682 5688 5693 5698 5703 5709 5713
5779 5776 5774 5771 5768 5765 5762 5760 5757 5754 5751 5748 5745 5741 5738 5735 5731 5727 5724 5719 5715 5710 5705 5699 5694 5690 5685 5681 5677 5674 5671 5669 5667 5666 5664 5663 5662 5661 5660 5660 5659 5658 5657 5656 5655 5654 5653 5652 5651 5650 5649 5648 5647 5646 5646 5646 5645 5645 5645 5646 5646 5646 5646 5645 5643 5642 5641 5640 5639 5637 5639 5646 5651 5652 5654 5654 5656 5659 5663 5667 5671 5675 5680 5686 5691 5697 5702 5707
5777 5775 5772 5769 5766 5763 5760 5757 5755 5752 5749 5746 5742 5739 5735 5732 5728 5724 5720 5716 5711 5706 5701 5695 5691 5686 5681 5678 5674 5671 5669 5667 5666 5664 5663 5662 5661 5660 5659 5658 5656 5655 5654 5652 5651 5650 5649 5648 5647 5646 5645 5644 5643 5642 5641 5641 5641 5641 5641 5641 5641 5642 5641 5640 5638 5637 5637 5635 5635 5634 5636 5642 5645 5646 5647 5647 5649 5652 5656 5660 5664 5668 5674 5680 5685 5690 5695 5700
5776 5773 5770 5767 5764 5761 5758 5755 5752 5749 5746 5743 5740 5736 5733 5729 5725 5721 5716 5712 5708 5702 5697 5692 5688 5683 5679 5675 5672 5669 5668 5666 5665 5663 5662 5661 5659 5658 5656 5655 5654 5652 5651 5649 5647 5646 5645 5644 5643 5642 5641 5640 5639 5638 5637 5637 5637 5637 5637 5637 5637 5637 5637 5636 5634 5633 5632 5631 5631 5631 5633 5637 5638 5638 5640 5641 5643 5645 5649 5653 5657 5662 5667 5673 5678 5684 5689 5694
5774 5771 5768 5765 5762 5759 5756 5753 5750 5747 5744 5741 5738 5734 5730 5726 5722 5718 5713 5708 5704 5699 5694 5689 5685 5680 5676 5673 5670 5668 5667 5665 5664 5662 5661 5659 5658 5656 5654 5653 5651 5649 5648 5646 5644 5642 5641 5640 5640 5639 5638 5637 5635 5634 5634 5634 5633 5633 5633 5633 5633 5633 5632 5631 5630 5629 5628 5627 5627 5628 5629 5631 5630 5630 5634 5637 5637 5638 5642 5647 5652 5657 5661 5667 5671 5676 5681 5687
5772 5769 5766 5763 5760 5757 5754 5751 5748 5745 5742 5739 5735 5731 5727 5724 5719 5715 5710 5706 5701 5695 5691 5686 5682 5678 5674 5671 5668 5666 5665 5664 5663 5661 5660 5658 5656 5654 5652 5650 5648 5646 5644 5642 5641 5639 5638 5637 5637 5636 5635 5634 5632 5631 5631 5630 5630 5629 5628 5629 5629 5629 5628 5627 5626 5625 5623 5622 5624 5624 5623 5624 5624 5625 5629 5632 5632 5633 5637 5641 5646 5651 5655 5660 5665 5670 5675 5680
5770 5767 5764 5762 5759 5756 5753 5750 5747 5743 5740 5736 5733 5729 5725 5721 5716 5711 5707 5702 5697 5692 5688 5684 5680 5676 5672 5670 5668 5666 5665 5663 5662 5660 5658 5656 5653 5651 5649 5646 5644 5641 5640 5638 5637 5635 5635 5635 5634 5632 5632 5632 5630 5629 5627 5626 5625 5625 5624 5624 5625 5624 5624 5624 5622 5621 5619 5617 5620 5619 5616 5618 5620 5621 5624 5626 5628 5631 5633 5636 5640 5645 5648 5654 5659 5664 5669 5674
5768 5766 5763 5760 5757 5754 5751 5748 5745 5742 5738 5734 5731 5727 5723 5719 5715 5710 5704 5699 5694 5689 5685 5681 5677 5673 5670 5668 5667 5666 5665 5662 5660 5658 5656 5653 5650 5647 5645 5642 5640 5638 5636 5634 5633 5632 5631 5631 5630 5629 5628 5628 5626 5625 5624 5622 5621 5621 5620 5619 5620 5620 5620 5619 5618 5617 5615 5613 5615 5614 5611 5613 5616 5617 5619 5621 5624 5628 5630 5631 5635 5638 5642 5648 5654 5659 5664 5668
5767 5764 5761 5758 5756 5753 5750 5747 5744 5741 5737 5733 5729 5725 5721 5717 5712 5707 5702 5697 5692 5687 5683 5679 5675 5671 5668 5666 5665 5665 5663 5661 5659 5656 5653 5650 5647 5644 5641 5639 5637 5635 5633 5631 5630 5629 5628 5627 5626 5626 5625 5624 5623 5621 5619 5618 5618 5617 5616 5615 5616 5616 5615 5615 5614 5612 5611 5609 5610 5609 5607 5609 5612 5612 5615 5618 5620 5623 5626 5627 5629 5633 5637 5642 5648 5654 5659 5663
5765 5763 5760 5757 5754 5751 5748 5745 5742 5739 5736 5732 5728 5723 5719 5714 5710 5704 5699 5695 5690 5686 5681 5677 5673 5670 5667 5666 5664 5663 5661 5659 5656 5654 5651 5647 5644 5642 5640 5638 5636 5634 5632 5630 5628 5627 5626 5625 5624 5623 5621 5620 5619 5618 5615 5615 5614 5613 5612 5612 5612 5611 5610 5609 5610 5608 5608 5607 5606 5605 5604 5605 5608 5608 5611 5614 5615 5618 5622 5624 5626 5629 5632 5637 5642 5648 5654 5658
5764 5761 5758 5756 5753 5750 5747 5744 5740 5737 5733 5729 5725 5721 5717 5712 5708 5702 5697 5693 5688 5683 5678 5675 5671 5668 5666 5665 5663 5661 5659 5657 5654 5652 5649 5646 5643 5641 5640 5638 5636 5634 5632 5630 5628 5626 5625 5624 5623 5621 5620 5618 5617 5615 5613 5611 5611 5610 5610 5608 5608 5607 5605 5605 5605 5604 5605 5605 5603 5602 5600 5601 5603 5604 5607 5611 5612 5614 5618 5620 5623 5626 5630 5634 5638 5644 5649 5654
5763 5760 5757 5754 5752 5749 5746 5742 5739 5735 5731 5727 5724 5720 5715 5710 5705 5700 5695 5690 5685 5680 5676 5673 5670 5667 5666 5664 5662 5660 5658 5656 5653 5650 5648 5646 5643 5641 5639 5637 5636 5634 5632 5631 5629 5627 5625 5623 5622 5621 5619 5617 5616 5614 5612 5610 5609 5609 5608 5605 5604 5603 5602 5601 5601 5600 5600 5602 5601 5600 5597 5596 5599 5602 5604 5606 5608 5610 5613 5616 5620 5623 5627 5631 5635 5640 5645 5649
5762 5759 5756 5753 5750 5748 5744 5741 5737 5734 5730 5726 5722 5718 5714 5709 5704 5699 5693 5687 5683 5679 5676 5672 5670 5667 5665 5664 5662 5659 5657 5654 5651 5649 5647 5646 5643 5641 5639 5638 5636 5635 5633 5631 5629 5627 5625 5623 5621 5620 5618 5616 5614 5612 5610 5609 5608 5607 5605 5602 5600 5600 5598 5597 5597 5596 5596 5598 5598 5598 5595 5593 5595 5599 5601 5602 5604 5606 5609 5612 5616 5620 5624 5628 5631 5636 5640 5644
5761 5758 5755 5752 5749 5746 5743 5739 5736 5732 5728 5724 5720 5716 5712 5707 5702 5698 5691 5686 5682 5679 5675 5671 5669 5666 5664 5662 5660 5657 5655 5652 5650 5649 5648 5646 5644 5642 5640 5638 5636 5635 5633 5631 5629 5626 5624 5622 5620 5618 5617 5615 5613 5611 5608 5607 5605 5604 5602 5599 5597 5596 5595 5594 5594 5594 5593 5593 5594 5595 5595 5591 5591 5596 5599 5600 5601 5602 5605 5609 5613 5616 5620 5624 5628 5632 5636 5640
5760 5757 5754 5751 5747 5744 5741 5738 5734 5730 5726 5722 5719 5715 5710 5706 5701 5695 5690 5685 5682 5678 5674 5671 5668 5666 5663 5661 5657 5655 5653 5651 5649 5649 5648 5646 5644 5642 5640 5639 5637 5635 5632 5630 5628 5625 5623 5620 5619 5617 5615 5613 5611 5609 5606 5604 5602 5601 5599 5596 5595 5593 5592 5592 5591 5591 5591 5588 5590 5593 5594 5590 5586 5591 5597 5598 5598 5601 5604 5608 5610 5613 5616 5620 5624 5628 5632 5636
5759 5756 5753 5750 5746 5743 5740 5737 5733 5729 5725 5721 5717 5713 5709 5705 5699 5693 5689 5685 5681 5676 5673 5671 5669 5667 5664 5661 5657 5655 5653 5651 5650 5649 5648 5646 5645 5643 5641 5639 5637 5634 5632 5629 5626 5624 5622 5619 5617 5615 5613 5611 5609 5606 5604 5602 5600 5599 5597 5594 5593 5591 5590 5589 5588 5590 5587 5583 5587 5591 5591 5588 5583 5585 5593 5596 5597 5600 5603 5606 5608 5611 5614 5617 5621 5624 5628 5631
5758 5755 5752 5749 5746 5742 5739 5736 5732 5728 5724 5720 5716 5712 5708 5702 5696 5693 5689 5685 5680 5676 5673 5671 5669 5667 5663 5661 5659 5655 5653 5651 5650 5650 5648 5647 5645 5643 5642 5640 5637 5634 5632 5628 5625 5622 5620 5618 5615 5613 5611 5609 5607 5605 5603 5601 5598 5596 5595 5593 5591 5589 5588 5587 5585 5586 5583 5580 5586 5588 5586 5585 5580 5582 5591 5594 5595 5598 5599 5602 5604 5607 5610 5613 5616 5619 5623 5626
5757 5754 5751 5748 5745 5741 5738 5735 5731 5727 5723 5719 5715 5712 5707 5701 5696 5693 5689 5684 5680 5677 5674 5671 5670 5667 5663 5661 5658 5655 5653 5652 5651 5650 5649 5648 5646 5644 5643 5641 5638 5635 5632 5629 5626 5622 5619 5616 5614 5612 5610 5608 5605 5604 5601 5600 5597 5595 5593 5591 5589 5588 5586 5585 5584 5583 5580 5579 5582 5583 5582 5579 5576 5580 5588 5591 5593 5594 5595 5598 5600 5603 5606 5608 5612 5615 5618 5621
5756 5753 5750 5747 5744 5740 5737 5734 5730 5727 5722 5718 5715 5710 5705 5701 5697 5693 5688 5684 5680 5677 5674 5671 5669 5668 5664 5660 5658 5655 5654 5653 5653 5652 5650 5649 5647 5646 5644 5641 5638 5635 5631 5628 5626 5623 5619 5616 5614 5611 5609 5607 5604 5602 5600 5598 5596 5593 5592 5590 5588 5587 5585 5584 5583 5581 5579 5579 5579 5578 5578 5574 5573 5579 5585 5588 5591 5591 5592 5595 5597 5600 5603 5605 5609 5611 5614 5618
5755 5752 5749 5746 5743 5740 5736 5733 5729 5726 5722 5718 5714 5708 5705 5702 5698 5692 5687 5684 5680 5677 5674 5670 5668 5666 5663 5660 5658 5657 5655 5654 5653 5653 5652 5650 5648 5646 5643 5641 5638 5634 5631 5628 5624 5622 5619 5615 5613 5610 5608 5606 5603 5601 5598 5596 5594 5592 5590 5589 5588 5586 5583 5582 5581 5579 5578 5578 5577 5575 5574 5571 5571 5577 5581 5584 5586 5588 5589 5591 5593 5597 5600 5602 5605 5607 5611 5615
5754 5751 5748 5745 5742 5739 5735 5732 5729 5725 5722 5718 5713 5709 5706 5703 5697 5693 5689 5684 5680 5677 5675 5671 5668 5665 5662 5661 5659 5658 5656 5655 5655 5654 5653 5651 5649 5646 5644 5641 5637 5634 5631 5628 5624 5621 5618 5615 5612 5609 5607 5604 5602 5599 5597 5594 5592 5590 5589 5588 5587 5585 5582 5581 5580 5578 5577 5576 5576 5574 5572 5571 5571 5572 5574 5576 5579 5583 5586 5588 5590 5594 5597 5599 5601 5604 5608 5612
5753 5750 5747 5744 5741 5738 5734 5731 5728 5725 5721 5718 5713 5709 5706 5702 5697 5693 5689 5685 5681 5678 5675 5673 5670 5667 5665 5662 5660 5658 5657 5656 5656 5655 5653 5651 5649 5647 5644 5641 5637 5633 5630 5627 5623 5620 5617 5614 5611 5609 5606 5603 5601 5598 5596 5593 5591 5589 5587 5586 5585 5583 5581 5579 5577 5577 5575 5573 5573 5573 5570 5570 5571 5570 5570 5571 5574 5578 5582 5584 5587 5590 5592 5595 5597 5601 5605 5608
5752 5749 5746 5743 5740 5737 5734 5731 5728 5725 5721 5717 5712 5709 5706 5701 5698 5694 5689 5685 5682 5679 5676 5674 5671 5668 5666 5663 5660 5659 5658 5657 5656 5655 5653 5652 5649 5647 5644 5641 5637 5634 5630 5626 5622 5619 5617 5614 5611 5608 5606 5603 5601 5598 5596 5593 5591 5589 5586 5585 5584 5582 5580 5578 5575 5574 5573 5570 5569 5570 5569 5568 5569 5569 5569 5569 5571 5574 5576 5579 5582 5584 5586 5589 5594 5597 5601 5604
5751 5748 5745 5742 5739 5736 5733 5730 5727 5724 5720 5716 5712 5709 5705 5701 5698 5694 5690 5685 5682 5679 5677 5675 5671 5668 5666 5663 5661 5659 5658 5658 5657 5655 5653 5652 5650 5647 5644 5641 5638 5634 5631 5627 5623 5620 5617 5614 5611 5608 5606 5603 5600 5598 5596 5593 5591 5588 5586 5584 5583 5581 5579 5577 5574 5573 5571 5568 5565 5566 5566 5566 5565 5566 5566 5566 5567 5568 5570 5572 5575 5579 5581 5585 5589 5593 5595 5599
5751 5747 5744 5741 5738 5736 5733 5730 5727 5723 5719 5715 5712 5709 5705 5701 5698 5694 5690 5686 5682 5680 5678 5675 5672 5668 5666 5664 5661 5659 5659 5658 5657 5656 5654 5652 5650 5648 5645 5643 5639 5635 5631 5627 5625 5622 5618 5615 5611 5608 5605 5603 5600 5598 5595 5593 5590 5588 5585 5583 5581 5580 5578 5575 5573 5571 5569 5567 5564 5562 5563 5563 5562 5560 5560 5561 5562 5563 5564 5566 5569 5573 5576 5580 5583 5586 5589 5593
5749 5746 5743 5740 5737 5735 5732 5729 5726 5722 5719 5716 5712 5708 5705 5701 5698 5694 5690 5686 5683 5680 5678 5675 5672 5669 5667 5664 5661 5659 5659 5658 5657 5656 5655 5653 5651 5648 5646 5644 5641 5636 5632 5629 5626 5623 5620 5616 5612 5609 5606 5603 5600 5598 5595 5592 5590 5587 5585 5583 5581 5579 5577 5574 5572 5570 5568 5566 5563 5560 5559 5560 5558 5556 5556 5557 5558 5559 5560 5562 5565 5568 5572 5575 5579 5582 5584 5588
5748 5745 5742 5739 5737 5734 5731 5728 5725 5722 5719 5715 5712 5708 5705 5701 5697 5694 5690 5687 5683 5680 5677 5675 5672 5669 5667 5664 5662 5660 5659 5659 5658 5656 5655 5653 5651 5650 5647 5644 5641 5637 5634 5630 5628 5624 5620 5617 5613 5610 5607 5604 5601 5599 5596 5592 5590 5587 5585 5583 5580 5578 5576 5573 5571 5570 5567 5565 5563 5560 5557 5555 5554 5554 5555 5555 5556 5557 5559 5560 5562 5564 5567 5570 5574 5577 5579 5582
5747 5745 5742 5739 5736 5733 5730 5728 5724 5721 5718 5715 5712 5708 5704 5700 5697 5693 5690 5687 5684 5680 5677 5675 5672 5670 5668 5665 5662 5660 5659 5659 5658 5656 5656 5654 5652 5650 5647 5644 5640 5637 5634 5631 5629 5626 5622 5619 5615 5611 5607 5605 5602 5599 5596 5593 5590 5588 5585 5583 5581 5578 5576 5573 5570 5569 5567 5564 5562 5560 5557 5555 5554 5554 5554 5553 5553 5554 5555 5557 5558 5561 5563 5565 5568 5571 5573 5576
5747 5744 5741 5738 5735 5732 5730 5727 5724 5721 5718 5715 5712 5708 5704 5700 5697 5693 5690 5687 5684 5681 5677 5675 5673 5670 5667 5666 5663 5661 5659 5658 5657 5656 5655 5654 5652 5650 5647 5644 5641 5638 5634 5632 5630 5627 5624 5620 5617 5613 5609 5606 5603 5600 5596 5593 5590 5588 5585 5583 5580 5578 5576 5573 5570 5568 5566 5563 5560 5558 5556 5555 5554 5554 5552 5551 5551 5551 5551 5552 5553 5554 5557 5558 5561 5563 5566 5570
5745 5743 5740 5737 5734 5731 5729 5726 5724 5721 5717 5714 5710 5707 5704 5701 5697 5693 5690 5687 5684 5681 5678 5675 5673 5670 5667 5665 5664 5662 5660 5658 5657 5656 5655 5653 5652 5650 5648 5645 5642 5637 5634 5633 5631 5627 5624 5621 5618 5614 5610 5606 5602 5599 5596 5593 5590 5588 5586 5583 5581 5578 5575 5573 5570 5568 5565 5563 5560 5557 5556 5555 5553 5552 5550 5548 5547 5547 5547 5547 5547 5548 5549 5550 5553 5555 5557 5562
5743 5741 5739 5736 5733 5730 5728 5726 5724 5720 5716 5713 5710 5707 5704 5701 5697 5694 5690 5687 5685 5681 5678 5675 5673 5670 5667 5665 5664 5662 5661 5658 5657 5655 5654 5653 5652 5650 5648 5646 5642 5638 5636 5634 5632 5629 5626 5623 5619 5614 5609 5605 5601 5598 5595 5593 5591 5589 5587 5584 5581 5578 5575 5572 5570 5567 5564 5562 5559 5557 5555 5554 5551 5549 5548 5546 5544 5543 5543 5543 5543 5543 5542 5542 5544 5546 5548 5553
5742 5739 5737 5735 5732 5730 5727 5725 5723 5719 5716 5713 5710 5707 5704 5701 5697 5694 5690 5687 5684 5681 5678 5675 5673 5671 5668 5666 5664 5663 5661 5659 5657 5655 5654 5653 5651 5650 5648 5646 5643 5640 5638 5635 5633 5631 5628 5626 5622 5616 5611 5607 5603 5600 5596 5594 5592 5590 5588 5585 5581 5578 5575 5572 5569 5566 5563 5560 5559 5556 5554 5552 5551 5548 5546 5544 5542 5541 5539 5537 5537 5537 5537 5537 5536 5537 5539 5544
5741 5738 5736 5733 5730 5728 5726 5723 5721 5719 5716 5712 5709 5706 5703 5700 5697 5694 5691 5687 5684 5681 5678 5675 5674 5672 5670 5667 5665 5662 5661 5660 5658 5656 5654 5653 5652 5650 5648 5646 5643 5641 5639 5636 5634 5632 5629 5627 5624 5620 5615 5610 5606 5602 5598 5596 5594 5592 5589 5586 5583 5579 5575 5572 5569 5566 5562 5559 5557 5555 5552 5551 5549 5547 5544 5542 5540 5538 5536 5534 5532 5532 5532 5532 5531 5531 5531 5535
5739 5737 5734 5732 5729 5726 5724 5722 5720 5718 5716 5712 5709 5706 5702 5699 5697 5694 5691 5688 5685 5681 5678 5676 5674 5672 5670 5668 5665 5663 5661 5660 5659 5656 5654 5653 5651 5649 5648 5646 5644 5643 5640 5637 5636 5634 5630 5628 5626 5622 5618 5613 5608 5604 5600 5598 5596 5593 5590 5587 5584 5580 5576 5572 5569 5565 5562 5559 5556 5554 5552 5550 5548 5546 5543 5541 5538 5535 5533 5531 5529 5527 5527 5527 5527 5527 5527 5528
5738 5735 5732 5730 5728 5725 5723 5721 5719 5717 5714 5711 5708 5705 5702 5699 5697 5694 5691 5688 5685 5682 5678 5676 5674 5671 5670 5668 5666 5663 5661 5660 5659 5657 5655 5653 5651 5650 5648 5646 5645 5644 5641 5639 5637 5634 5631 5628 5626 5624 5621 5616 5611 5607 5603 5600 5598 5594 5592 5589 5585 5581 5576 5573 5569 5566 5564 5561 5557 5554 5552 5550 5547 5545 5542 5539 5536 5533 5531 5529 5526 5524 5522 5521 5522 5523 5524 5525
5736 5733 5731 5728 5726 5723 5721 5719 5717 5716 5713 5711 5708 5705 5702 5700 5698 5695 5691 5688 5685 5682 5679 5676 5674 5671 5669 5667 5665 5663 5661 5660 5659 5657 5655 5653 5652 5650 5649 5647 5646 5644 5642 5640 5638 5635 5631 5629 5626 5625 5623 5619 5615 5610 5605 5602 5599 5595 5593 5591 5586 5582 5578 5574 5571 5567 5564 5562 5560 5557 5554 5550 5547 5545 5541 5538 5535 5532 5529 5526 5523 5521 5518 5516 5517 5519 5521 5523
5735 5732 5729 5726 5724 5722 5719 5717 5716 5714 5713 5710 5708 5705 5703 5700 5697 5695 5692 5688 5685 5682 5680 5677 5675 5672 5669 5666 5664 5663 5661 5660 5658 5658 5656 5654 5652 5650 5649 5648 5646 5644 5642 5640 5638 5635 5632 5630 5628 5626 5624 5621 5618 5612 5607 5603 5600 5596 5593 5590 5586 5583 5579 5575 5571 5568 5564 5562 5560 5558 5554 5551 5547 5545 5542 5538 5535 5532 5529 5524 5520 5517 5514 5512 5513 5515 5518 5521
5734 5731 5727 5725 5723 5720 5718 5716 5714 5713 5712 5710 5707 5705 5703 5700 5697 5694 5691 5689 5686 5683 5681 5678 5675 5672 5669 5667 5665 5663 5661 5660 5658 5657 5656 5654 5653 5650 5649 5648 5646 5644 5642 5639 5637 5634 5631 5630 5629 5627 5624 5622 5619 5613 5608 5604 5599 5593 5590 5588 5587 5585 5582 5578 5574 5570 5566 5563 5560 5557 5553 5550 5547 5544 5542 5539 5536 5532 5529 5523 5518 5515 5511 5508 5509 5512 5515 5518